Regional Weather Roundup
Issued by NWS

Home | Current Version | Previous Version | Text Only | Print | Product List | Glossary On
Versions: 1 2 3 4 5 6 7 8 9 10 11 12 13 14 15 16 17 18 19 20 21 22 23 24 25 26 27 28 29 30 31 32 33 34 35 36 37 38 39 40 41 42 43 44 45 46 47 48 49 50
000
ASUS43 KDTX 281710
RWRMI
MICHIGAN HOURLY REGIONAL WEATHER ROUNDUP
NATIONAL WEATHER SERVICE DETROIT/PONTIAC MI
100 PM EDT FRI JUL 28 2017

NOTE: "FAIR" INDICATES FEW OR NO CLOUDS BELOW 12,000 FEET WITH NO
SIGNIFICANT WEATHER AND/OR OBSTRUCTION TO VISIBILITY.

MIZ047>049-052>055-059>063-066>070-074>076-081>083-281800-
SOUTHEAST LOWER MICHIGAN

CITY           SKY/WX    TMP DP  RH WIND       PRES   REMARKS
ADRIAN         PTSUNNY   77  64  64 NE13      29.95R
ALMA           MOSUNNY   75  54  46 NE15G23   30.04R
ANN ARBOR      PTSUNNY   79  64  60 VRB7G17   29.95S
BAD AXE        CLOUDY    68  57  69 NE12      30.05S
CARO           MOSUNNY   74  58  57 N10       30.03R
DETROIT CITY   PTSUNNY   76  62  62 NE14G20   29.95F
DETROIT        PTSUNNY   76  62  62 N9        29.94S
FLINT          MOSUNNY   76  56  49 E18G25    30.00S
GROSSE ILE     PTSUNNY   74  63  68 NE10G17   29.93S
HILLSDALE      CLOUDY    73  61  64 N12       29.96S
HOWELL         MOSUNNY   74  59  58 NE14G20   29.99S

CITY           SKY/WX    TMP DP  RH WIND       PRES   REMARKS
JACKSON        MOSUNNY   75  58  55 NE14      29.97F
LAMBERTVILLE   CLOUDY    73  64  73 NE6       29.93R
LANSING        MOSUNNY   77  54  44 NE22G31   30.00S
LAPEER         FAIR      73  58  60 NE7G21    30.01S
MASON          MOSUNNY   74  60  60 NE16G24   29.99S
MONROE         CLOUDY    73  64  73 N7        29.93R
MT. CLEMENS    PTSUNNY   75  63  66 NE12      29.94S
PONTIAC        CLOUDY    73  60  63 NE16G25   29.97R
PORT HOPE        N/A     67  57  70 NE21      30.04R
PORT HURON     CLOUDY    73  61  64 N13       29.98S
TRI CITIES     MOSUNNY   73  63  70 NE16      30.05R
MIDLAND        FAIR      74  57  54 NE14G22   30.04S
TROY           CLOUDY    75  61  62 N10G16    29.98R
SAGINAW HB     PTSUNNY   72  61  68 N15G21    30.03R
$$
MIZ043>046-050>051-056>058-064>065-071>073-077>080-281800-
SOUTHWEST LOWER MICHIGAN

CITY           SKY/WX    TMP DP  RH WIND       PRES   REMARKS
BATTLE CREEK   MOSUNNY   78  55  44 NE22      29.99S
BENTON HARBOR  MOSUNNY   78  58  49 VRB7      29.98S
BIG RAPIDS     MOSUNNY   75  54  48 E12       30.04S
COLDWATER      PTSUNNY   75  60  60 NE13G18   29.97S
FREMONT        FAIR      78  52  39 NE9       30.03S
HOLLAND        MOSUNNY   80  56  43 E10       30.01S
GRAND RAPIDS   MOSUNNY   79  55  43 E14G22    30.01S
IONIA          FAIR      76  55  47 NE17G23   30.01S
KALAMAZOO      MOSUNNY   79  53  40 NE15      29.98S
LUDINGTON      CLOUDY    74  60  63 N3        30.03S
MARSHALL       MOSUNNY   77  58  51 NE7       29.98S
MOUNT PLEASANT PTSUNNY   76  55  46 NE10G17   30.04R
MUSKEGON       MOSUNNY   81  58  45 E14G22    30.02S
SOUTH HAVEN    SUNNY     79  57  47 NE14G22   29.99S
$$
MIZ016>042-281800-
NORTHERN LOWER MICHIGAN

CITY           SKY/WX    TMP DP  RH WIND       PRES   REMARKS
ALPENA         MOSUNNY   71  49  45 E13G21    30.11S
BEAVER ISLAND  SUNNY     73  59  62 NE10G16   30.11R
BELLAIRE       MOSUNNY   76  54  46 NE5       30.07S
CADILLAC       PTSUNNY   77  55  45 NE7       30.05F
CHARLEVOIX     PTSUNNY   72  57  57 E6        30.12S
FRANKFORT      SUNNY     76  63  64 NW6       30.05S
GAYLORD        MOSUNNY   72  53  51 NE12      30.10S
GRAYLING       MOSUNNY   74  53  48 E8        30.09S
HARBOR SPRINGS SUNNY     73  52  46 E8G20     30.10R
HOUGHTON LAKE  PTSUNNY   74  56  53 E13       30.07F
MANISTEE       MOSUNNY   75  62  64 NW10      30.04S
OSCODA         MOSUNNY   71  53  51 NE14G20   30.09R
PELLSTON       SUNNY     73  54  51 E14       30.11S
ROGERS CITY    MOSUNNY   67  53  59 E12       30.13S
TRAVERSE CITY  MOSUNNY   75  60  59 N9        30.05S
$$
MIZ007>008-015-281800-
EASTERN UPPER MICHIGAN

CITY           SKY/WX    TMP DP  RH WIND       PRES   REMARKS
KINROSS        MOSUNNY   71  48  43 SE14      30.13S
MACKINAC ISLAN MOSUNNY   67  55  66 E12G18    30.13R
NEWBERRY       PTSUNNY   69  53  55 CALM      30.11S
S. S. MARIE    MOSUNNY   74  51  44 SE9       30.12S
MUNISING         N/A     70  63  78 NE10      30.13R
$$
MIZ004>006-011>014-085-281800-
CENTRAL UPPER MICHIGAN

CITY           SKY/WX    TMP DP  RH WIND       PRES   REMARKS
MANISTIQUE     PTSUNNY   72  58  63 SE13      30.11S
ESCANABA       SUNNY     76  54  46 N8        30.10S
MENOMINEE      SUNNY     71  61  70 E15       30.10S
SAWYER-GWINN   MOSUNNY   72  48  43 NE12      30.15R
$$
MIZ001>003-009>011-084-281800-
WESTERN UPPER MICHIGAN

CITY           SKY/WX    TMP DP  RH WIND       PRES   REMARKS
HOUGHTON       SUNNY     76  53  44 VRB3      30.13F
COPPER HARBOR    N/A     66  57  72 NE3       30.14R
IRONWOOD       SUNNY     74  51  44 E6        30.16S
$$

ABBREVIATIONS USED IN REMARKS
   TC - TEMPERATURE IN CELSIUS
  WCI - WIND CHILL INDEX
   HX - HEAT INDEX
  VSB - VISIBILITY




USA.gov is the U.S. government's official web portal to all federal, state and local government web resources and services.